Location: Balaclava NSW 2575, Australia
(34.4510°S, 150.4953°E)
Time: 23:55:13
(UTC+10:00)

X-37B - Pass Details

Date: 02 August 2021
Orbit: 381 x 393 km, 45.0° (Epoch: 29 August)

Event Time Altitude Azimuth Distance (km) Brightness Sun altitude
Rises 18:02:50 0° 237° (WSW) 2,313 5.2 -9.6°
Reaches altitude 10° 18:05:50 10° 207° (SSW) 1,453 3.6 -10.2°
Maximum altitude 18:07:26 13° 178° (S) 1,289 3.1 -10.5°
Drops below altitude 10° 18:09:02 10° 148° (SSE) 1,451 3.1 -10.8°
Enters shadow 18:09:08 10° 147° (SSE) 1,469 3.1 -10.8°
